GSAT0216 (GALILEO 20) (43056 NORAD) Tracking and Keplerian Element Data

This shows tracking and keplerian element data for the satellite.

Feedback or suggestion? Click here.




ElementValue
Catalog43056
NameGSAT0216 (GALILEO 20)
Epoch Orbit1434
Epoch Day92.57519272
Epoch Year2020
RAAN283.9031
Inclination56.3305
Eccentricity0.0002166
Argument of Perigee290.5808
Mean Anonmoly69.4042
Mean Motion1.70474173
Decay Rate2.9E-07
L11 43056U 17079B 20092.57519272 .00000029 00000-0 00000-0 0 9994
L22 43056 56.3305 283.9031 0002166 290.5808 69.4042 1.70474173 14346

Live tracking and technical data element details for GSAT0216 (GALILEO 20) (NORAD 43056). GSAT0216 (GALILEO 20) can be tracked NOW for your location showing map with azimuth and elevation plus other details from your city location.

Track the satellite on the map from your city or location and see movement details for azimuth, elevation, latitude, longitude, range, height, and movement on the map or in text.







IsCatalogInMostPopularTable: catalog: 43056, numindb: 476
Update: records affected: 1



GetName: 43056 GSAT0216 (GALILEO 20)

Hit Count: updated at: Thu, 09 Apr 2020 17:55:18 GMT